{"data":{"norad_id":69888,"intl_designator":"2026-156V","name":"TRANSPORTER-17 OBJECT V","alt_names":[],"object_type":"PAYLOAD","status":"ACTIVE","operator":null,"country":"TBD","launch_date":"2026-07-07","launch_site_code":"AFWTR","launch_vehicle":null,"mission":null,"orbit_class":"UNKNOWN","rcs_meters":null,"size_class":null,"mass_kg":null,"dimensions":null,"purposes":[],"wikipedia_slug":null,"has_3d_model":false,"image_url":null,"decayed_at":null,"tle_current":{"epoch":"2026-09-19T00:12:58.741344Z","epoch_age_seconds":150507,"freshness":"FRESH","line1":"1 69888U 26156V   26262.00901321  .00001622  00000+0  16747-3 0  9991","line2":"2 69888  97.7478 161.2115 0003225 261.2282  98.8571 14.91524782 10827","mean_motion":14.91524782,"eccentricity":0.0003225,"inclination_deg":97.7478,"raan_deg":161.2115,"arg_perigee_deg":261.2282,"mean_anomaly_deg":98.8571,"bstar":0.00016747,"rev_number":1082,"period_min":96.545496084154,"perigee_km":590.93219069819,"apogee_km":595.42869044736,"semimajor_km":6971.3174405728,"source":"CELESTRAK","updated_at":"2026-09-20T09:00:25.167915Z"}}}